Regional Weather Roundup
Issued by NWS

Home | Current Version | Previous Version | Graphics & Text | Print | Product List | Glossary On
Versions: 1 2 3 4 5 6 7 8 9 10 11 12 13 14 15 16 17 18 19 20 21 22 23 24 25 26 27 28 29 30 31 32 33 34 35 36 37 38 39 40 41 42 43 44 45 46 47 48 49 50
000
ASUS43 KBIS 301002
RWRND

NORTH DAKOTA REGIONAL WEATHER ROUNDUP
NATIONAL WEATHER SERVICE BISMARCK ND
500 AM CDT SUN AUG 30 2015

NOTE: "FAIR" INDICATES FEW OR NO CLOUDS BELOW 12,000 FEET WITH NO
SIGNIFICANT WEATHER AND/OR OBSTRUCTIONS TO VISIBILITY.


NDZ001>003-009>011-017-301100-
NORTHWEST NORTH DAKOTA

CITY           SKY/WX    TMP DP  RH WIND       PRES   REMARKS
WILLISTON      CLOUDY    65  56  72 CALM      29.66F HAZE
MINOT          PTCLDY    73  57  57 SE5       29.69F
MINOT AFB      MOCLDY    66  61  84 SE6       29.68F
$$

NDZ018>021-031>035-040>046-301100-
SOUTHWEST NORTH DAKOTA

CITY           SKY/WX    TMP DP  RH WIND       PRES   REMARKS
BISMARCK       MOCLDY    64  61  90 E7        29.76F
DICKINSON      MOCLDY    65  51  60 S10       29.73F
GARRISON         N/A     64  59  83 E3        29.73F
HETTINGER ARPT MOCLDY    63  49  60 CALM      29.79F
$$

NDZ004>008-012>016-024-026-027-054-301100-
NORTHEAST NORTH DAKOTA

CITY           SKY/WX    TMP DP  RH WIND       PRES   REMARKS
GRAND FORKS    CLEAR     66  65  96 S10       29.77F
GRND FRKS AFB  PTCLDY    66  66  99 S9        29.77S
DEVILS LAKE    MOCLDY    72  63  73 S6        29.75S
$$

NDZ022-023-025-028>030-036>039-047>053-301100-
SOUTHEAST NORTH DAKOTA

CITY           SKY/WX    TMP DP  RH WIND       PRES   REMARKS
FARGO          PTCLDY    65  62  90 SE13      29.83S
JAMESTOWN      CLOUDY    66  65  96 S9        29.79F FOG
$$




USA.gov is the U.S. government's official web portal to all federal, state and local government web resources and services.